Tracking 31027 objects as of 19-Jul-2025
HD Live streaming from Space Station
objects crossing your sky now

FENGYUN 1C DEB

Track FENGYUN 1C DEB now!
10-day predictions


NORAD ID: 30017
Int'l Code: 1999-025MS
Perigee: 544.2 km
Apogee: 851.6 km
Inclination: 98.8 °
Period: 98.6 minutes
Semi major axis: 7068 km
RCS: 0.0357 m2 (small)
Launch date: May 10, 1999
Source: People's Republic of China (PRC)
Launch site: Taiyaun Space Center, China (TSC)

Note: This is SATELLITE DEBRIS
Your satellite tracking list
MAROC TUBSAT
Track 1 satellite(s)




NASA's NSSDC Master Catalog

Two Line Element Set (TLE):
1 30017U 99025MS  25199.56429864  .00000408  00000-0  70503-4 0  9997
2 30017  98.7743 235.4160 0217477 268.1184  89.5098 14.60744019982958
Source of the keplerian elements: AFSPC